Time,TemperatureF,DewpointF,PressureIn,WindDirection,WindDirectionDegrees,WindSpeedMPH,WindSpeedGustMPH,Humidity,HourlyPrecipIn,Conditions,Clouds,dailyrainin,SoftwareType,DateUTC
2013-03-23 00:02:00,27.0,20.0,29.83,WNW,300,5.0,11.0,75,0.00,,,0.02,,2013-03-23 04:02:00,
2013-03-23 00:12:00,27.0,20.0,29.83,WNW,300,5.0,11.0,75,0.00,,,0.02,,2013-03-23 04:12:00,
2013-03-23 00:23:00,27.0,20.0,29.83,WSW,251,3.0,8.0,75,0.00,,,0.02,,2013-03-23 04:23:00,
2013-03-23 00:32:00,27.0,20.0,29.83,West,275,2.0,5.0,75,0.00,,,0.02,,2013-03-23 04:32:00,
2013-03-23 00:43:00,27.0,20.0,29.83,West,275,2.0,5.0,75,0.00,,,0.02,,2013-03-23 04:43:00,
2013-03-23 00:53:00,27.0,20.0,29.83,WNW,292,3.0,9.0,76,0.00,,,0.02,,2013-03-23 04:53:00,
2013-03-23 01:02:00,27.0,20.0,29.83,WNW,303,3.0,7.0,76,0.00,,,0.02,,2013-03-23 05:02:00,
2013-03-23 01:12:00,27.0,20.0,29.83,WNW,303,3.0,7.0,76,0.00,,,0.02,,2013-03-23 05:12:00,
2013-03-23 01:22:00,27.0,20.0,29.83,WSW,258,3.0,11.0,76,0.00,,,0.02,,2013-03-23 05:22:00,
2013-03-23 01:32:00,27.0,20.0,29.83,West,274,6.0,9.0,76,0.00,,,0.02,,2013-03-23 05:32:00,
2013-03-23 01:42:00,27.0,20.0,29.83,West,274,6.0,9.0,76,0.00,,,0.02,,2013-03-23 05:42:00,
2013-03-23 01:52:00,27.0,20.0,29.82,West,277,3.0,9.0,76,0.00,,,0.02,,2013-03-23 05:52:00,
2013-03-23 02:02:00,27.0,21.0,29.82,NW,307,3.0,7.0,77,0.00,,,0.02,,2013-03-23 06:02:00,
2013-03-23 02:12:00,27.0,21.0,29.82,NW,307,3.0,7.0,77,0.00,,,0.02,,2013-03-23 06:12:00,
2013-03-23 02:22:00,27.0,21.0,29.82,West,267,5.0,8.0,77,0.00,,,0.02,,2013-03-23 06:22:00,
2013-03-23 02:32:00,27.0,21.0,29.82,NNW,329,3.0,5.0,77,0.00,,,0.02,,2013-03-23 06:32:00,
2013-03-23 02:42:00,27.0,21.0,29.82,NNW,329,3.0,5.0,77,0.00,,,0.02,,2013-03-23 06:42:00,
2013-03-23 02:52:00,26.0,20.0,29.82,WNW,294,5.0,9.0,78,0.00,,,0.02,,2013-03-23 06:52:00,
2013-03-23 03:02:00,26.0,20.0,29.82,NW,308,5.0,7.0,78,0.00,,,0.02,,2013-03-23 07:02:00,
2013-03-23 03:12:00,26.0,20.0,29.82,NW,308,5.0,7.0,78,0.00,,,0.02,,2013-03-23 07:12:00,
2013-03-23 03:22:00,26.0,20.0,29.82,North,8,2.0,8.0,79,0.00,,,0.02,,2013-03-23 07:22:00,
2013-03-23 03:32:00,26.0,20.0,29.82,NW,326,3.0,7.0,79,0.00,,,0.02,,2013-03-23 07:32:00,
2013-03-23 03:42:00,26.0,20.0,29.82,NW,326,3.0,7.0,79,0.00,,,0.02,,2013-03-23 07:42:00,
2013-03-23 03:52:00,26.0,20.0,29.81,NNW,348,4.0,11.0,79,0.00,,,0.02,,2013-03-23 07:52:00,
2013-03-23 04:02:00,26.0,20.0,29.80,NW,316,3.0,8.0,79,0.00,,,0.02,,2013-03-23 08:02:00,
2013-03-23 04:13:00,26.0,20.0,29.80,NW,316,3.0,8.0,79,0.00,,,0.02,,2013-03-23 08:13:00,
2013-03-23 04:22:00,26.0,20.0,29.80,WNW,300,3.0,6.0,79,0.00,,,0.02,,2013-03-23 08:22:00,
2013-03-23 04:32:00,26.0,20.0,29.80,WNW,296,4.0,6.0,79,0.00,,,0.02,,2013-03-23 08:32:00,
2013-03-23 04:42:00,26.0,20.0,29.80,WNW,296,4.0,6.0,79,0.00,,,0.02,,2013-03-23 08:42:00,
2013-03-23 04:52:00,26.0,20.0,29.80,WNW,303,3.0,8.0,79,0.00,,,0.02,,2013-03-23 08:52:00,
2013-03-23 05:02:00,26.0,20.0,29.80,NW,324,3.0,10.0,79,0.00,,,0.02,,2013-03-23 09:02:00,
2013-03-23 05:12:00,26.0,20.0,29.80,NW,324,3.0,10.0,79,0.00,,,0.02,,2013-03-23 09:12:00,
2013-03-23 05:22:00,26.0,20.0,29.80,NW,305,3.0,6.0,79,0.00,,,0.02,,2013-03-23 09:22:00,
2013-03-23 05:33:00,26.0,20.0,29.80,WNW,285,3.0,11.0,79,0.00,,,0.02,,2013-03-23 09:33:00,
2013-03-23 05:42:00,26.0,20.0,29.80,WNW,285,3.0,11.0,79,0.00,,,0.02,,2013-03-23 09:42:00,
2013-03-23 05:53:00,26.0,20.0,29.80,NW,318,4.0,6.0,79,0.00,,,0.02,,2013-03-23 09:53:00,
2013-03-23 06:03:00,26.0,20.0,29.80,NW,304,3.0,8.0,78,0.00,,,0.02,,2013-03-23 10:03:00,
2013-03-23 06:13:00,26.0,20.0,29.80,NW,304,3.0,8.0,78,0.00,,,0.02,,2013-03-23 10:13:00,
2013-03-23 06:23:00,26.0,20.0,29.80,NW,315,1.0,10.0,78,0.00,,,0.02,,2013-03-23 10:23:00,
2013-03-23 06:34:00,26.0,20.0,29.80,NNW,327,3.0,7.0,78,0.00,,,0.02,,2013-03-23 10:34:00,
2013-03-23 06:42:00,26.0,20.0,29.80,NNW,327,3.0,7.0,78,0.00,,,0.02,,2013-03-23 10:42:00,
2013-03-23 06:52:00,26.0,20.0,29.81,NW,316,4.0,8.0,78,0.00,,,0.02,,2013-03-23 10:52:00,
2013-03-23 07:03:00,26.0,20.0,29.82,NW,320,4.0,7.0,78,0.00,,,0.02,,2013-03-23 11:03:00,
2013-03-23 07:12:00,26.0,20.0,29.82,NW,320,4.0,7.0,78,0.00,,,0.02,,2013-03-23 11:12:00,
2013-03-23 07:22:00,26.0,20.0,29.82,NNW,338,3.0,7.0,78,0.00,,,0.02,,2013-03-23 11:22:00,
2013-03-23 07:32:00,26.0,20.0,29.83,NW,326,3.0,9.0,78,0.00,,,0.02,,2013-03-23 11:32:00,
2013-03-23 07:42:00,26.0,20.0,29.83,NW,326,3.0,9.0,78,0.00,,,0.02,,2013-03-23 11:42:00,
2013-03-23 07:52:00,26.0,20.0,29.83,NW,326,3.0,7.0,78,0.00,,,0.02,,2013-03-23 11:52:00,
2013-03-23 08:02:00,26.0,20.0,29.84,NNW,346,3.0,7.0,78,0.00,,,0.02,,2013-03-23 12:02:00,
2013-03-23 08:13:00,26.0,20.0,29.84,NNW,346,3.0,7.0,78,0.00,,,0.02,,2013-03-23 12:13:00,
2013-03-23 08:22:00,27.0,21.0,29.84,NNW,336,3.0,8.0,78,0.00,,,0.02,,2013-03-23 12:22:00,
2013-03-23 08:33:00,27.0,21.0,29.84,NNW,345,5.0,8.0,78,0.00,,,0.02,,2013-03-23 12:33:00,
2013-03-23 08:42:00,27.0,21.0,29.84,NNW,345,5.0,8.0,78,0.00,,,0.02,,2013-03-23 12:42:00,
2013-03-23 08:53:00,28.0,22.0,29.84,NNW,339,4.0,7.0,77,0.00,,,0.02,,2013-03-23 12:53:00,
2013-03-23 09:03:00,28.0,21.0,29.83,NNW,338,4.0,10.0,76,0.00,,,0.02,,2013-03-23 13:03:00,
2013-03-23 09:12:00,28.0,21.0,29.83,NNW,338,4.0,10.0,76,0.00,,,0.02,,2013-03-23 13:12:00,
2013-03-23 09:23:00,29.0,22.0,29.83,NNW,338,4.0,11.0,74,0.00,,,0.02,,2013-03-23 13:23:00,
2013-03-23 09:33:00,30.0,22.0,29.84,NNW,334,4.0,8.0,72,0.00,,,0.02,,2013-03-23 13:33:00,
2013-03-23 09:43:00,30.0,22.0,29.84,NNW,334,4.0,8.0,72,0.00,,,0.02,,2013-03-23 13:43:00,
2013-03-23 09:53:00,32.0,23.0,29.84,NNW,340,5.0,9.0,69,0.00,,,0.02,,2013-03-23 13:53:00,
2013-03-23 10:03:00,32.0,23.0,29.84,NNW,331,3.0,9.0,68,0.00,,,0.02,,2013-03-23 14:03:00,
2013-03-23 10:12:00,32.0,23.0,29.84,NNW,331,3.0,9.0,68,0.00,,,0.02,,2013-03-23 14:12:00,
2013-03-23 10:22:00,33.0,23.0,29.84,NNW,343,4.0,10.0,66,0.00,,,0.02,,2013-03-23 14:22:00,
2013-03-23 10:32:00,34.0,23.0,29.84,NNW,330,5.0,9.0,63,0.00,,,0.02,,2013-03-23 14:32:00,
2013-03-23 10:43:00,34.0,23.0,29.84,NNW,330,5.0,9.0,63,0.00,,,0.02,,2013-03-23 14:43:00,
2013-03-23 10:53:00,34.0,22.0,29.84,NW,317,4.0,11.0,62,0.00,,,0.02,,2013-03-23 14:53:00,
2013-03-23 11:03:00,34.0,22.0,29.85,NNW,333,6.0,10.0,60,0.00,,,0.02,,2013-03-23 15:03:00,
2013-03-23 11:12:00,34.0,22.0,29.85,NNW,333,6.0,10.0,60,0.00,,,0.02,,2013-03-23 15:12:00,
2013-03-23 11:22:00,35.0,22.0,29.85,NNW,343,5.0,9.0,58,0.00,,,0.02,,2013-03-23 15:22:00,
2013-03-23 11:33:00,37.0,23.0,29.86,NNW,329,5.0,10.0,56,0.00,,,0.02,,2013-03-23 15:33:00,
2013-03-23 11:43:00,37.0,23.0,29.86,NNW,329,5.0,10.0,56,0.00,,,0.02,,2013-03-23 15:43:00,
2013-03-23 11:53:00,37.0,22.0,29.87,NW,325,5.0,7.0,54,0.00,,,0.02,,2013-03-23 15:53:00,
2013-03-23 12:03:00,37.0,21.0,29.86,NW,317,4.0,12.0,53,0.00,,,0.02,,2013-03-23 16:03:00,
2013-03-23 12:13:00,37.0,21.0,29.86,NW,317,4.0,12.0,53,0.00,,,0.02,,2013-03-23 16:13:00,
2013-03-23 12:23:00,37.0,21.0,29.86,NNW,336,5.0,9.0,53,0.00,,,0.02,,2013-03-23 16:23:00,
2013-03-23 12:33:00,37.0,21.0,29.86,NNW,336,5.0,12.0,52,0.00,,,0.02,,2013-03-23 16:33:00,
2013-03-23 12:43:00,37.0,21.0,29.86,NNW,336,5.0,12.0,52,0.00,,,0.02,,2013-03-23 16:43:00,
2013-03-23 12:53:00,37.0,22.0,29.86,NW,323,4.0,11.0,54,0.00,,,0.02,,2013-03-23 16:53:00,
2013-03-23 13:02:00,36.0,21.0,29.87,NW,325,5.0,11.0,54,0.00,,,0.02,,2013-03-23 17:02:00,
2013-03-23 13:12:00,37.0,22.0,29.86,NNW,333,4.0,8.0,54,0.02,,,0.04,,2013-03-23 17:12:00,
2013-03-23 13:22:00,37.0,22.0,29.86,NNW,333,4.0,8.0,54,0.02,,,0.04,,2013-03-23 17:22:00,
2013-03-23 13:33:00,39.0,22.0,29.87,NNW,336,4.0,9.0,51,0.02,,,0.04,,2013-03-23 17:33:00,
2013-03-23 13:42:00,39.0,22.0,29.87,NNW,336,4.0,9.0,51,0.02,,,0.04,,2013-03-23 17:42:00,
2013-03-23 13:53:00,39.0,21.0,29.87,North,349,7.0,13.0,49,0.02,,,0.04,,2013-03-23 17:53:00,
2013-03-23 14:03:00,39.0,21.0,29.87,NNW,339,6.0,11.0,49,0.02,,,0.02,,2013-03-23 18:03:00,
2013-03-23 14:12:00,39.0,21.0,29.87,NNW,339,6.0,11.0,49,0.02,,,0.02,,2013-03-23 18:12:00,
2013-03-23 14:22:00,39.0,22.0,29.87,NNW,332,6.0,9.0,50,0.00,,,0.02,,2013-03-23 18:22:00,
2013-03-23 14:32:00,39.0,20.0,29.87,NNW,328,6.0,11.0,47,0.02,,,0.04,,2013-03-23 18:32:00,
2013-03-23 14:42:00,39.0,20.0,29.87,NNW,328,6.0,11.0,47,0.02,,,0.04,,2013-03-23 18:42:00,
2013-03-23 14:53:00,40.0,21.0,29.87,NNW,341,6.0,11.0,47,0.02,,,0.04,,2013-03-23 18:53:00,
2013-03-23 15:03:00,40.0,22.0,29.87,NNW,334,7.0,19.0,48,0.02,,,0.04,,2013-03-23 19:03:00,
2013-03-23 15:13:00,40.0,22.0,29.87,NNW,334,7.0,19.0,48,0.02,,,0.04,,2013-03-23 19:13:00,
2013-03-23 15:23:00,39.0,20.0,29.87,NNW,343,8.0,13.0,47,0.02,,,0.04,,2013-03-23 19:23:00,
2013-03-23 15:32:00,38.0,20.0,29.86,North,355,6.0,11.0,48,0.00,,,0.04,,2013-03-23 19:32:00,
2013-03-23 15:42:00,38.0,20.0,29.86,North,355,6.0,11.0,48,0.00,,,0.04,,2013-03-23 19:42:00,
2013-03-23 15:53:00,38.0,20.0,29.86,NNW,344,8.0,13.0,48,0.00,,,0.04,,2013-03-23 19:53:00,
2013-03-23 16:03:00,37.0,20.0,29.87,North,358,4.0,13.0,49,0.00,,,0.04,,2013-03-23 20:03:00,
2013-03-23 16:13:00,37.0,20.0,29.87,North,358,4.0,13.0,49,0.00,,,0.04,,2013-03-23 20:13:00,
2013-03-23 16:22:00,36.0,19.0,29.86,North,356,8.0,13.0,50,0.00,,,0.04,,2013-03-23 20:22:00,
2013-03-23 16:32:00,35.0,19.0,29.86,NNW,342,6.0,14.0,51,0.00,,,0.04,,2013-03-23 20:32:00,
2013-03-23 16:42:00,35.0,19.0,29.86,NNW,342,6.0,14.0,51,0.00,,,0.04,,2013-03-23 20:42:00,
2013-03-23 16:53:00,36.0,20.0,29.86,NW,326,5.0,9.0,51,0.00,,,0.04,,2013-03-23 20:53:00,
2013-03-23 17:02:00,36.0,19.0,29.87,North,356,8.0,14.0,49,0.00,,,0.04,,2013-03-23 21:02:00,
2013-03-23 17:12:00,36.0,19.0,29.87,North,356,8.0,14.0,49,0.00,,,0.04,,2013-03-23 21:12:00,
2013-03-23 17:22:00,35.0,19.0,29.87,NW,316,5.0,9.0,51,0.00,,,0.04,,2013-03-23 21:22:00,
2013-03-23 17:33:00,34.0,18.0,29.87,NNW,336,6.0,14.0,51,0.00,,,0.04,,2013-03-23 21:33:00,
2013-03-23 17:43:00,34.0,18.0,29.87,NNW,336,6.0,14.0,51,0.00,,,0.04,,2013-03-23 21:43:00,
2013-03-23 17:54:00,33.0,17.0,29.88,NNW,342,8.0,14.0,51,0.00,,,0.04,,2013-03-23 21:54:00,
2013-03-23 18:03:00,34.0,18.0,29.89,NNW,347,9.0,17.0,51,0.00,,,0.04,,2013-03-23 22:03:00,
2013-03-23 18:13:00,34.0,18.0,29.89,NNW,347,9.0,17.0,51,0.00,,,0.04,,2013-03-23 22:13:00,
2013-03-23 18:23:00,32.0,16.0,29.89,NNW,348,7.0,14.0,51,0.00,,,0.04,,2013-03-23 22:23:00,
2013-03-23 18:33:00,32.0,16.0,29.89,NNW,338,6.0,9.0,52,0.00,,,0.04,,2013-03-23 22:33:00,
2013-03-23 18:42:00,32.0,16.0,29.89,NNW,338,6.0,9.0,52,0.00,,,0.04,,2013-03-23 22:42:00,
2013-03-23 18:53:00,32.0,17.0,29.88,NNW,338,7.0,15.0,54,0.00,,,0.04,,2013-03-23 22:53:00,
2013-03-23 19:02:00,31.0,17.0,29.88,NNW,342,6.0,11.0,56,0.00,,,0.04,,2013-03-23 23:02:00,
2013-03-23 19:13:00,31.0,17.0,29.88,NNW,342,6.0,11.0,56,0.00,,,0.04,,2013-03-23 23:13:00,
2013-03-23 19:23:00,30.0,17.0,29.89,North,353,5.0,11.0,57,0.00,,,0.04,,2013-03-23 23:23:00,
2013-03-23 19:33:00,30.0,17.0,29.89,NNW,345,4.0,9.0,59,0.00,,,0.04,,2013-03-23 23:33:00,
2013-03-23 19:43:00,30.0,17.0,29.89,NNW,345,4.0,9.0,59,0.00,,,0.04,,2013-03-23 23:43:00,
2013-03-23 19:52:00,29.0,16.0,29.89,NNW,332,3.0,13.0,58,0.00,,,0.04,,2013-03-23 23:52:00,
2013-03-23 20:02:00,29.0,16.0,29.89,NNW,336,5.0,9.0,58,0.00,,,0.04,,2013-03-24 00:02:00,
2013-03-23 20:13:00,29.0,16.0,29.89,NNW,336,5.0,9.0,58,0.00,,,0.04,,2013-03-24 00:13:00,
2013-03-23 20:23:00,29.0,16.0,29.89,NNW,339,4.0,9.0,58,0.00,,,0.04,,2013-03-24 00:23:00,
2013-03-23 20:32:00,29.0,16.0,29.89,NNW,343,3.0,12.0,59,0.00,,,0.04,,2013-03-24 00:32:00,
2013-03-23 20:42:00,29.0,16.0,29.89,NNW,343,3.0,12.0,59,0.00,,,0.04,,2013-03-24 00:42:00,
2013-03-23 20:53:00,29.0,17.0,29.91,NNW,333,3.0,8.0,60,0.00,,,0.04,,2013-03-24 00:53:00,
2013-03-23 21:02:00,29.0,17.0,29.91,North,353,2.0,5.0,60,0.00,,,0.04,,2013-03-24 01:02:00,
2013-03-23 21:12:00,29.0,17.0,29.91,North,353,2.0,5.0,60,0.00,,,0.04,,2013-03-24 01:12:00,
2013-03-23 21:22:00,29.0,17.0,29.91,WNW,300,2.0,5.0,60,0.00,,,0.04,,2013-03-24 01:22:00,
2013-03-23 21:32:00,29.0,17.0,29.92,NW,315,2.0,7.0,60,0.00,,,0.04,,2013-03-24 01:32:00,
2013-03-23 21:42:00,29.0,17.0,29.92,NW,315,2.0,7.0,60,0.00,,,0.04,,2013-03-24 01:42:00,
2013-03-23 21:53:00,29.0,17.0,29.92,NW,315,2.0,4.0,60,0.00,,,0.04,,2013-03-24 01:53:00,
2013-03-23 22:03:00,29.0,17.0,29.92,NNW,344,3.0,5.0,60,0.00,,,0.04,,2013-03-24 02:03:00,
2013-03-23 22:12:00,29.0,17.0,29.92,NNW,344,3.0,5.0,60,0.00,,,0.04,,2013-03-24 02:12:00,
2013-03-23 22:22:00,29.0,17.0,29.91,NNW,336,3.0,7.0,61,0.00,,,0.04,,2013-03-24 02:22:00,
2013-03-23 22:32:00,29.0,18.0,29.91,NNW,341,3.0,5.0,62,0.00,,,0.04,,2013-03-24 02:32:00,
2013-03-23 22:42:00,29.0,18.0,29.91,NNW,341,3.0,5.0,62,0.00,,,0.04,,2013-03-24 02:42:00,
2013-03-23 22:52:00,29.0,18.0,29.91,NNW,340,3.0,6.0,63,0.00,,,0.04,,2013-03-24 02:52:00,
2013-03-23 23:02:00,29.0,18.0,29.91,North,352,2.0,6.0,63,0.00,,,0.04,,2013-03-24 03:02:00,
2013-03-23 23:12:00,29.0,18.0,29.91,North,352,2.0,6.0,63,0.00,,,0.04,,2013-03-24 03:12:00,
2013-03-23 23:23:00,29.0,18.0,29.91,NNW,337,3.0,5.0,64,0.00,,,0.04,,2013-03-24 03:23:00,
2013-03-23 23:33:00,29.0,18.0,29.91,North,357,2.0,5.0,64,0.00,,,0.04,,2013-03-24 03:33:00,
2013-03-23 23:42:00,29.0,18.0,29.91,North,357,2.0,5.0,64,0.00,,,0.04,,2013-03-24 03:42:00,
2013-03-23 23:53:00,29.0,18.0,29.92,NNW,347,3.0,5.0,64,0.00,,,0.04,,2013-03-24 03:53:00,